QPF
0.00 0.00 0.00 0.00 0.00 0.00 0.00 0.00 0.00 0.00 0.00 0.00 0.00 0.00 0.00 0.00 0.00 0.00 0.00 0.00 0.00 0.00
0.00 0.00 0.00 0.00 0.00 0.00 0.00 0.00 0.00 0.00 0.00 0.00 0.00 0.00 0.00 0.00 0.00 0.00 0.00 0.00 0.00 0.00
0.00 0.00 0.00 0.00 0.00 0.00 0.00 0.00 0.00 0.00 0.00 0.00 0.00 0.00 0.00 0.00 0.00 0.00 0.00 0.00 0.00 0.00
0.00 0.00 0.00 0.00 0.00 0.00 0.00 0.00 0.00 0.00 0.00 0.00 0.00 0.00 0.00 0.00 0.00 0.00 0.00 0.00 0.00 0.00
0.00 0.00 0.00 0.00 0.00 0.00 0.00 0.00 0.00 0.00 0.00 0.00 0.00 0.00 0.00 0.00 0.00 0.00 0.00 0.00 0.00 0.00
0.00 0.00 0.00 0.00 0.00 0.00 0.00 0.00 0.00 0.00 0.00 0.00 0.00 0.00 0.00 0.00 0.00 0.00 0.00 0.00 0.00 0.00
0.00 0.00 0.00 0.00 0.00 0.00 0.00 0.00 0.00 0.00 0.00 0.00 0.00 0.00 0.00 0.00 0.00 0.00 0.00 0.00 0.00 0.00
0.00 0.00 0.00 0.00 0.00 0.00 0.00 0.00 0.00 0.00 0.00 0.00 0.00 0.00 0.00 0.00 0.00 0.00 0.00 0.00 0.00 0.00
0.00 0.00 0.00 0.00 0.00 0.00 0.00 0.00 0.00 0.00 0.00 0.00 0.00 0.00 0.00 0.00 0.00 0.00 0.00 0.00 0.00 0.00
0.00 0.00 0.00 0.00 0.00 0.00 0.00 0.00 0.00 0.00 0.00 0.00 0.00 0.00 0.00 0.00 0.00 0.00 0.00 0.00 0.00 0.00
0.00 0.00 0.00 0.00 0.00 0.00 0.00 0.00 0.00 0.00 0.00 0.00 0.00 0.00 0.00 0.00 0.00 0.00 0.00 0.00 0.00 0.00
0.00 0.00 0.00 0.00 0.00 0.00 0.00 0.00 0.00 0.00 0.00 0.00 0.00 0.00 0.00 0.00 0.00 0.00 0.00 0.00 0.00 0.00
0.00 0.00 0.00 0.00 0.00 0.00 0.00 0.00 0.00 0.00 0.00 0.00 0.00 0.00 0.00 0.00 0.00 0.00 0.00 0.00 0.00 0.00
0.00 0.00 0.00 0.00 0.00 0.00 0.00 0.00 0.00 0.00 0.00 0.00 0.00 0.00 0.00 0.00 0.00 0.00 0.00 0.00 0.00 0.00
MSLP
1014.84 1014.81 1014.64 1014.34 1013.96 1013.47 1013.24 1012.99 1012.81 1012.83 1013.12 1013.35 1013.31 1013.53 1013.73 1013.76 1013.84 1014.12 1014.05 1014.23 1014.55 1014.95
1015.53 1015.12 1015.22 1015.03 1014.57 1014.43 1014.03 1013.75 1013.25 1012.93 1012.87 1013.26 1013.21 1013.02 1013.24 1013.25 1013.57 1013.67 1013.61 1013.56 1013.78 1014.14
1016.38 1016.01 1015.65 1015.38 1015.18 1015.00 1015.11 1014.00 1013.40 1012.97 1012.90 1013.00 1013.14 1012.89 1012.91 1013.00 1012.95 1013.24 1013.28 1013.24 1013.24 1013.51
1016.94 1016.69 1016.42 1015.90 1015.53 1015.26 1015.22 1014.58 1013.46 1013.44 1013.01 1012.78 1012.98 1012.67 1012.57 1012.54 1012.72 1012.83 1012.77 1012.79 1012.77 1012.75
1017.38 1017.02 1016.72 1016.34 1015.99 1015.59 1015.19 1014.70 1014.35 1013.71 1013.09 1012.41 1012.70 1012.74 1012.35 1012.19 1012.42 1012.17 1012.35 1012.36 1012.49 1012.21
1017.34 1017.05 1016.57 1016.47 1016.45 1016.23 1015.66 1014.71 1014.15 1013.93 1013.49 1012.52 1011.95 1012.41 1012.57 1011.92 1011.79 1011.71 1011.65 1011.52 1011.53 1011.67
1017.41 1017.07 1016.76 1016.75 1016.47 1016.13 1015.41 1014.74 1014.06 1013.71 1013.54 1012.89 1011.97 1011.75 1011.98 1011.84 1011.25 1011.31 1011.15 1010.68 1010.64 1010.87
1017.30 1017.04 1016.77 1016.58 1016.34 1015.80 1015.23 1014.43 1013.92 1013.36 1013.09 1012.61 1011.96 1011.83 1011.50 1011.11 1010.94 1010.72 1010.42 1009.69 1009.49 1009.53
1017.52 1017.21 1016.89 1016.49 1016.04 1015.50 1014.94 1014.41 1013.85 1013.26 1012.62 1012.04 1011.40 1011.01 1010.96 1010.61 1010.39 1010.00 1009.60 1009.00 1008.40 1008.49
1017.51 1017.11 1016.65 1016.29 1015.86 1015.20 1014.53 1013.84 1013.03 1012.43 1011.94 1011.26 1010.71 1010.35 1010.05 1009.57 1009.48 1009.04 1008.69 1008.03 1007.87 1007.60
1017.21 1016.73 1016.17 1015.83 1015.49 1015.01 1014.53 1013.71 1012.84 1012.07 1011.44 1010.60 1009.75 1009.41 1008.78 1008.43 1008.00 1007.63 1007.07 1006.90 1006.61 1006.65
1016.90 1016.45 1015.99 1015.46 1015.06 1014.58 1014.20 1013.45 1012.66 1011.82 1010.65 1009.82 1008.54 1008.21 1007.65 1007.36 1006.83 1006.21 1005.54 1005.38 1005.12 1004.92
1016.85 1016.46 1015.94 1015.45 1014.76 1014.12 1013.82 1012.92 1012.21 1011.06 1010.15 1009.09 1007.86 1006.85 1006.39 1006.10 1005.68 1004.88 1004.20 1003.78 1003.56 1003.12
1017.12 1016.73 1016.21 1015.45 1014.80 1014.13 1013.47 1012.66 1011.49 1010.47 1009.27 1008.43 1007.23 1005.53 1004.89 1004.32 1004.00 1003.25 1002.58 1002.15 1001.90 1001.69
Thickness
5551 5548 5547 5548 5551 5555 5558 5561 5563 5563 5559 5558 5560 5560 5559 5560 5560 5558 5563 5563 5561 5558
5523 5525 5523 5524 5527 5526 5530 5533 5539 5543 5546 5541 5542 5546 5544 5545 5545 5546 5548 5551 5552 5550
5497 5500 5502 5503 5502 5503 5500 5512 5516 5520 5523 5523 5523 5526 5527 5529 5531 5529 5532 5536 5538 5539
5471 5474 5474 5478 5481 5481 5480 5487 5498 5496 5501 5504 5503 5506 5509 5511 5512 5514 5517 5518 5522 5527
5446 5449 5451 5453 5454 5458 5460 5465 5467 5473 5480 5485 5484 5485 5491 5493 5492 5498 5500 5502 5505 5514
5426 5428 5429 5429 5428 5429 5434 5443 5447 5449 5455 5464 5469 5465 5466 5473 5476 5481 5485 5488 5493 5498
5402 5406 5407 5405 5405 5407 5412 5419 5424 5427 5430 5439 5448 5452 5450 5451 5459 5461 5467 5475 5478 5482
5376 5378 5381 5380 5381 5385 5390 5396 5402 5408 5411 5416 5425 5428 5434 5437 5440 5445 5451 5461 5466 5471
5346 5348 5351 5354 5357 5360 5363 5367 5374 5381 5387 5395 5401 5408 5410 5417 5423 5428 5436 5447 5456 5455
5315 5319 5322 5322 5325 5331 5337 5343 5352 5359 5365 5374 5381 5385 5390 5396 5401 5410 5419 5431 5437 5443
5288 5290 5294 5295 5296 5297 5298 5308 5319 5328 5337 5348 5361 5364 5371 5375 5382 5393 5405 5413 5422 5425
5259 5259 5262 5265 5266 5268 5265 5273 5281 5291 5306 5316 5337 5343 5348 5351 5358 5371 5387 5395 5402 5410
5232 5230 5230 5232 5235 5239 5236 5240 5245 5257 5269 5283 5300 5320 5326 5329 5331 5347 5367 5377 5384 5395
5200 5196 5196 5198 5200 5199 5202 5206 5217 5224 5239 5248 5265 5289 5299 5308 5311 5326 5344 5355 5369 5381